sat.trackr.live / text

‹ back to catalog

STARLINK-37107

NORAD 68294 · 2026-057A

PAYLOAD ACTIVE UNKNOWN

§ Identity

Operator
Country
US
Launch date
2026-03-20
Launch site
AFWTR
Launch vehicle
Mass (kg)
RCS (m²)

Purposes: comms

External: N2YO · Heavens-Above · Gunter

§ Orbital elements

Epoch: 2026-05-24T20:44:28.119840Z

Period
91.41 min
Inclination
97.2841°
Eccentricity
0.0001019
Mean motion
15.75250442 rev/d
Perigee alt
343.2 km
Apogee alt
344.6 km
Semi-major
6,722.1 km
B*
1.8677e-3
RAAN
271.0511°
Arg perigee
114.7286°
Mean anomaly
245.4085°
Rev number
1,027

§ Raw data

STARLINK-371071 68294U 26057A   26144.86421435  .00288833  00000+0  18677-2 0  99912 68294  97.2841 271.0511 0001019 114.7286 245.4085 15.75250442 10272

JSON: /api/v1/satellites/68294 · /tle

For live sub-satellite position, see the globe view (requires WebGL).

§ Visibility from observer

Set your observer location to see the next 7 days of passes ≥ 10°. The values pass through the URL so the page stays shareable.

No JS? Fill the form by hand. The geolocation button needs JavaScript.